• In United Kingdom
  • List of Countries
  • For 7 days
  • Water Temperature
  • Satellite Maps
  • Weather Map
  • Weather Widgets
  • user-avatar
    Login

    Hourly Weather São Paulo

    Today, 13 November, Tuesday

    Time Temperature Precipitation Wind Pressure Humidity
    00:00 +20°C° 0 mm 2 mps 698 mmHg 87%
    01:00 +20°C° 0 mm 2 mps 698 mmHg 88%
    02:00 +20°C° 0 mm 2 mps 698 mmHg 89%
    03:00 +20°C° 0 mm 2 mps 697 mmHg 89%
    04:00 +20°C° 0 mm 2 mps 697 mmHg 89%
    05:00 +21°C° 0 mm 1 mps 697 mmHg 88%
    06:00 +21°C° 0 mm 1 mps 698 mmHg 87%
    07:00 +23°C° 0 mm 2 mps 698 mmHg 78%
    08:00 +26°C° 0 mm 2 mps 699 mmHg 69%
    09:00 +28°C° 0 mm 2 mps 700 mmHg 60%
    10:00 +29°C° 0.1 mm 3 mps 700 mmHg 57%
    11:00 +30°C° 0.1 mm 3 mps 700 mmHg 53%
    12:00 +31°C° 0.1 mm 3 mps 700 mmHg 50%
    13:00 +31°C° 0.2 mm 2 mps 699 mmHg 51%
    14:00 +31°C° 0.2 mm 2 mps 698 mmHg 51%
    15:00 +31°C° 0.2 mm 1 mps 698 mmHg 52%
    16:00 +30°C° 0 mm 1 mps 697 mmHg 56%
    17:00 +29°C° 0 mm 1 mps 697 mmHg 61%
    18:00 +28°C° 0 mm 1 mps 697 mmHg 65%
    19:00 +27°C° 0 mm 1 mps 697 mmHg 69%
    20:00 +26°C° 0 mm 1 mps 697 mmHg 73%
    21:00 +25°C° 0 mm 1 mps 698 mmHg 76%
    22:00 +25°C° 0 mm 1 mps 697 mmHg 77%
    23:00 +24°C° 0 mm 1 mps 697 mmHg 78%

    Tomorrow, 14 November, Wednesday

    Time Temperature Precipitation Wind Pressure Humidity
    00:00 +24°C° 0 mm 2 mps 697 mmHg 78%
    01:00 +24°C° 0 mm 2 mps 697 mmHg 78%
    02:00 +24°C° 0 mm 2 mps 696 mmHg 78%
    03:00 +24°C° 0 mm 2 mps 696 mmHg 77%
    04:00 +24°C° 0 mm 2 mps 696 mmHg 77%
    05:00 +24°C° 0 mm 2 mps 696 mmHg 78%
    06:00 +24°C° 0 mm 3 mps 696 mmHg 78%
    07:00 +26°C° 0 mm 3 mps 697 mmHg 70%
    08:00 +28°C° 0 mm 4 mps 697 mmHg 63%
    09:00 +30°C° 0 mm 4 mps 698 mmHg 55%
    10:00 +32°C° 0 mm 4 mps 698 mmHg 52%
    11:00 +33°C° 0 mm 4 mps 698 mmHg 48%
    12:00 +34°C° 0 mm 4 mps 697 mmHg 44%
    13:00 +34°C° 0 mm 4 mps 697 mmHg 44%
    14:00 +34°C° 0 mm 4 mps 696 mmHg 45%
    15:00 +34°C° 0 mm 4 mps 695 mmHg 45%
    16:00 +33°C° 0.3 mm 3 mps 695 mmHg 51%
    17:00 +30°C° 0.3 mm 3 mps 695 mmHg 58%
    18:00 +29°C° 0.3 mm 2 mps 695 mmHg 64%
    19:00 +28°C° 0.4 mm 2 mps 695 mmHg 68%
    20:00 +27°C° 0.4 mm 2 mps 696 mmHg 72%
    21:00 +26°C° 0.4 mm 2 mps 696 mmHg 76%
    22:00 +25°C° 0.2 mm 2 mps 696 mmHg 77%
    23:00 +25°C° 0.2 mm 2 mps 696 mmHg 78%

    Day after tomorrow, 15 November, Thursday

    Time Temperature Precipitation Wind Pressure Humidity
    00:00 +25°C° 0.2 mm 2 mps 695 mmHg 79%
    01:00 +25°C° 0 mm 2 mps 695 mmHg 80%
    02:00 +24°C° 0 mm 2 mps 694 mmHg 80%
    03:00 +24°C° 0 mm 2 mps 694 mmHg 80%
    04:00 +24°C° 0.5 mm 2 mps 694 mmHg 81%
    05:00 +24°C° 0.5 mm 1 mps 695 mmHg 81%
    06:00 +24°C° 0.5 mm 1 mps 695 mmHg 82%
    07:00 +25°C° 0.8 mm 2 mps 696 mmHg 78%
    08:00 +27°C° 0.8 mm 2 mps 697 mmHg 73%
    09:00 +28°C° 0.8 mm 2 mps 697 mmHg 68%
    10:00 +28°C° 0.9 mm 2 mps 697 mmHg 68%
    11:00 +29°C° 0.9 mm 2 mps 697 mmHg 68%
    12:00 +29°C° 0.9 mm 2 mps 698 mmHg 68%
    13:00 +28°C° 1.1 mm 3 mps 697 mmHg 73%
    14:00 +26°C° 1.1 mm 3 mps 697 mmHg 79%
    15:00 +25°C° 1.1 mm 3 mps 696 mmHg 84%
    16:00 +24°C° 0.5 mm 3 mps 696 mmHg 86%
    17:00 +22°C° 0.5 mm 3 mps 696 mmHg 87%
    18:00 +21°C° 0.5 mm 3 mps 697 mmHg 89%
    19:00 +21°C° 0.2 mm 3 mps 697 mmHg 89%
    20:00 +20°C° 0.2 mm 3 mps 698 mmHg 89%
    21:00 +20°C° 0.2 mm 3 mps 698 mmHg 89%
    22:00 +20°C° 0.2 mm 2 mps 698 mmHg 89%
    23:00 +20°C° 0.2 mm 2 mps 698 mmHg 89%

    16 November, Friday

    Time Temperature Precipitation Wind Pressure Humidity
    00:00 +19°C° 0.2 mm 2 mps 698 mmHg 89%
    01:00 +19°C° 0.1 mm 2 mps 698 mmHg 89%
    02:00 +19°C° 0.1 mm 2 mps 698 mmHg 89%
    03:00 +19°C° 0.1 mm 2 mps 697 mmHg 89%
    04:00 +19°C° 0.1 mm 2 mps 698 mmHg 89%
    05:00 +19°C° 0.1 mm 2 mps 698 mmHg 89%
    06:00 +19°C° 0.1 mm 2 mps 698 mmHg 89%
    07:00 +20°C° 0 mm 2 mps 699 mmHg 84%
    08:00 +21°C° 0 mm 2 mps 699 mmHg 80%
    09:00 +23°C° 0 mm 2 mps 700 mmHg 76%
    10:00 +25°C° 0.1 mm 3 mps 700 mmHg 71%
    11:00 +26°C° 0.1 mm 3 mps 700 mmHg 65%
    12:00 +28°C° 0.1 mm 3 mps 700 mmHg 60%
    13:00 +27°C° 0.4 mm 3 mps 699 mmHg 62%
    14:00 +27°C° 0.4 mm 4 mps 699 mmHg 64%
    15:00 +27°C° 0.4 mm 4 mps 698 mmHg 65%
    16:00 +25°C° 0.1 mm 4 mps 698 mmHg 69%
    17:00 +23°C° 0.1 mm 4 mps 699 mmHg 74%
    18:00 +22°C° 0.1 mm 4 mps 699 mmHg 78%
    19:00 +21°C° 0 mm 4 mps 699 mmHg 80%
    20:00 +20°C° 0 mm 3 mps 700 mmHg 83%
    21:00 +20°C° 0 mm 3 mps 700 mmHg 85%
    22:00 +20°C° 0 mm 3 mps 700 mmHg 85%
    23:00 +20°C° 0 mm 3 mps 700 mmHg 86%

    17 November, Saturday

    Time Temperature Precipitation Wind Pressure Humidity
    00:00 +20°C° 0 mm 3 mps 700 mmHg 87%
    01:00 +20°C° 0 mm 3 mps 699 mmHg 87%
    02:00 +20°C° 0 mm 3 mps 699 mmHg 88%
    03:00 +20°C° 0 mm 3 mps 698 mmHg 89%
    04:00 +20°C° 0 mm 3 mps 699 mmHg 89%
    05:00 +20°C° 0 mm 3 mps 699 mmHg 89%
    06:00 +20°C° 0 mm 2 mps 699 mmHg 88%
    07:00 +21°C° 0 mm 2 mps 699 mmHg 84%
    08:00 +23°C° 0 mm 2 mps 700 mmHg 79%
    09:00 +24°C° 0 mm 2 mps 700 mmHg 75%
    10:00 +25°C° 0.1 mm 2 mps 700 mmHg 73%
    11:00 +26°C° 0.1 mm 2 mps 700 mmHg 71%
    12:00 +27°C° 0.1 mm 2 mps 699 mmHg 69%
    13:00 +27°C° 0.5 mm 2 mps 699 mmHg 70%
    14:00 +27°C° 0.5 mm 2 mps 698 mmHg 71%
    15:00 +27°C° 0.5 mm 2 mps 698 mmHg 72%
    16:00 +26°C° 0.5 mm 2 mps 698 mmHg 76%
    17:00 +25°C° 0.5 mm 2 mps 698 mmHg 79%
    18:00 +24°C° 0.5 mm 2 mps 697 mmHg 83%
    19:00 +24°C° 0 mm 2 mps 698 mmHg 85%
    20:00 +23°C° 0 mm 1 mps 698 mmHg 87%
    21:00 +23°C° 0 mm 1 mps 698 mmHg 89%
    22:00 +22°C° 0 mm 1 mps 698 mmHg 89%
    23:00 +22°C° 0 mm 1 mps 697 mmHg 89%

    18 November, Sunday

    Time Temperature Precipitation Wind Pressure Humidity
    00:00 +22°C° 0 mm 1 mps 697 mmHg 89%
    01:00 +21°C° 0 mm 2 mps 696 mmHg 87%
    02:00 +21°C° 0 mm 2 mps 696 mmHg 84%
    03:00 +21°C° 0 mm 3 mps 695 mmHg 82%
    04:00 +21°C° 0.1 mm 3 mps 696 mmHg 82%
    05:00 +21°C° 0.1 mm 3 mps 696 mmHg 82%
    06:00 +22°C° 0.1 mm 3 mps 696 mmHg 82%
    07:00 +23°C° 0.1 mm 4 mps 696 mmHg 78%
    08:00 +25°C° 0.1 mm 4 mps 697 mmHg 74%
    09:00 +26°C° 0.1 mm 5 mps 697 mmHg 71%
    10:00 +27°C° 0.2 mm 5 mps 697 mmHg 68%
    11:00 +28°C° 0.2 mm 5 mps 696 mmHg 66%
    12:00 +29°C° 0.2 mm 5 mps 696 mmHg 63%
    13:00 +29°C° 1.1 mm 5 mps 695 mmHg 65%
    14:00 +29°C° 1.1 mm 5 mps 695 mmHg 67%
    15:00 +28°C° 1.1 mm 5 mps 694 mmHg 70%
    16:00 +27°C° 1.5 mm 4 mps 694 mmHg 74%
    17:00 +26°C° 1.5 mm 4 mps 694 mmHg 79%
    18:00 +25°C° 1.5 mm 4 mps 694 mmHg 83%
    19:00 +23°C° 1.7 mm 4 mps 694 mmHg 85%
    20:00 +23°C° 1.7 mm 4 mps 695 mmHg 87%
    21:00 +23°C° 1.7 mm 4 mps 695 mmHg 88%
    22:00 +23°C° 1.4 mm 4 mps 695 mmHg 89%
    23:00 +22°C° 1.4 mm 4 mps 695 mmHg 89%
    Show more